GW4413 Weather Reports


Display with metric or nautical units.
time (UTC)temp
F
wind
direction
speed
MPH
gust
MPH
rain 1hr
in
rain 24hr
in
rain mn
in
humidity
%
barometer
mb
20260903212516 62 42 0.0 2.0 0.00 0.02 0.02 72 1010.3
20260903212019 62 304 0.0 2.0 0.00 0.02 0.02 72 1010.3
20260903211503 62 304 0.0 3.0 0.00 0.02 0.02 72 1010.3
20260903211009 62 304 0.0 3.0 0.00 0.02 0.02 72 1010.2
20260903210504 62 70 0.0 2.0 0.00 0.02 0.02 72 1010.1
20260903210004 62 70 0.0 2.0 0.00 0.02 0.02 70 1010.0
20260903205510 62 70 0.0 3.0 0.00 0.02 0.02 72 1009.9
20260903205004 62 270 1.0 3.0 0.00 0.02 0.02 71 1009.9
20260903204510 62 76 0.0 3.0 0.00 0.02 0.02 72 1010.0
20260903204010 62 51 0.0 3.0 0.00 0.02 0.02 72 1009.9
20260903203508 61 348 0.0 2.0 0.00 0.02 0.02 72 1009.8
20260903203004 62 348 0.0 3.0 0.00 0.02 0.02 71 1009.8
20260903202507 62 59 0.0 3.0 0.00 0.02 0.02 71 1009.8
20260903202006 62 61 1.0 3.0 0.00 0.02 0.02 70 1009.7
20260903201506 62 61 0.0 3.0 0.00 0.02 0.02 70 1009.7
20260903201010 63 52 1.0 3.0 0.00 0.02 0.02 69 1009.7
20260903200503 63 59 0.0 3.0 0.00 0.02 0.02 69 1009.7
20260903200030 63 58 1.0 4.0 0.00 0.02 0.02 68 1009.7
20260903195507 63 70 1.0 6.0 0.00 0.02 0.02 68 1009.6
20260903195006 63 63 1.0 6.0 0.00 0.02 0.02 69 1009.6
20260903194543 63 304 0.0 5.0 0.00 0.02 0.02 68 1009.6
20260903194009 63 232 1.0 4.0 0.00 0.02 0.02 67 1009.5
20260903193508 62 20 2.0 4.0 0.00 0.02 0.02 69 1009.4
20260903193030 62 288 0.0 2.0 0.00 0.02 0.02 71 1009.4
20260903192509 62 62 0.0 3.0 0.00 0.02 0.02 72 1009.4
20260903192006 62 62 1.0 3.0 0.00 0.02 0.02 72 1009.4
20260903191529 62 246 0.0 3.0 0.00 0.02 0.02 72 1009.3
20260903191007 62 32 0.0 3.0 0.00 0.02 0.02 71 1009.3
20260903190505 62 213 0.0 2.0 0.00 0.02 0.02 70 1009.3
20260903190031 62 203 1.0 4.0 0.00 0.02 0.02 70 1009.3
20260903185513 62 109 1.0 4.0 0.00 0.02 0.02 70 1009.4
20260903185004 62 89 0.0 3.0 0.00 0.02 0.02 72 1009.3
20260903184528 62 189 0.0 3.0 0.00 0.02 0.02 71 1009.2
20260903184013 62 270 1.0 5.0 0.00 0.02 0.02 72 1009.2
20260903183505 62 292 0.0 5.0 0.00 0.02 0.02 72 1009.2
20260903183031 61 236 1.0 4.0 0.00 0.02 0.02 73 1009.1
20260903182510 61 185 0.0 4.0 0.00 0.02 0.02 74 1009.1
20260903182003 61 51 0.0 4.0 0.00 0.02 0.02 74 1009.0
20260903181527 61 350 1.0 3.0 0.00 0.02 0.02 76 1009.0
20260903181008 60 153 1.0 4.0 0.00 0.02 0.02 75 1008.9
20260903180504 60 71 1.0 4.0 0.00 0.02 0.02 76 1009.0
20260903180027 60 113 0.0 4.0 0.00 0.02 0.02 76 1008.9
20260903175509 60 59 1.0 4.0 0.00 0.02 0.02 78 1008.8
20260903175005 59 271 1.0 4.0 0.00 0.02 0.02 78 1008.8
20260903174529 59 170 1.0 3.0 0.00 0.02 0.02 79 1008.7
20260903174012 59 70 1.0 4.0 0.00 0.02 0.02 79 1008.7
20260903173503 58 193 0.0 4.0 0.00 0.02 0.02 78 1008.8
20260903173031 58 190 1.0 3.0 0.00 0.02 0.02 80 1008.8
20260903172510 58 260 0.0 3.0 0.00 0.02 0.02 79 1008.8
20260903172005 58 110 0.0 4.0 0.00 0.02 0.02 79 1008.7
20260903171532 58 242 1.0 4.0 0.00 0.02 0.02 79 1008.7
20260903171009 58 71 0.0 4.0 0.00 0.02 0.02 79 1008.6
20260903170507 58 123 0.0 3.0 0.00 0.02 0.02 81 1008.5
20260903170032 58 54 1.0 3.0 0.00 0.02 0.02 82 1008.5
20260903165512 57 213 1.0 3.0 0.00 0.02 0.02 82 1008.5
20260903165003 57 107 1.0 4.0 0.00 0.02 0.02 83 1008.5
20260903164530 57 159 0.0 5.0 0.00 0.02 0.02 84 1008.5
20260903164010 57 223 1.0 5.0 0.00 0.02 0.02 85 1008.5
20260903163503 57 120 0.0 5.0 0.00 0.02 0.02 85 1008.4
20260903163027 56 136 1.0 5.0 0.00 0.02 0.02 86 1008.4
20260903162508 56 360 1.0 5.0 0.00 0.02 0.02 86 1008.5
20260903162005 56 123 1.0 4.0 0.00 0.02 0.02 86 1008.5
20260903161532 56 190 1.0 4.0 0.00 0.02 0.02 88 1008.5
20260903161007 56 178 1.0 4.0 0.00 0.02 0.02 88 1008.5
20260903160503 56 101 0.0 6.0 0.00 0.02 0.02 88 1008.5
20260903160029 56 211 1.0 6.0 0.00 0.02 0.02 89 1008.5
20260903155509 56 19 0.0 4.0 0.00 0.02 0.02 89 1008.5
20260903155017 55 84 0.0 2.0 0.00 0.02 0.02 90 1008.5
20260903154527 55 206 0.0 1.0 0.00 0.02 0.02 90 1008.4
20260903154010 55 200 0.0 2.0 0.00 0.02 0.02 90 1008.4
20260903153520 55 182 0.0 5.0 0.00 0.02 0.02 90 1008.4
20260903153028 55 143 0.0 5.0 0.00 0.02 0.02 90 1008.4
20260903152508 55 200 0.0 2.0 0.00 0.02 0.02 91 1008.3
20260903152021 55 24 0.0 0.0 0.00 0.02 0.02 91 1008.3
20260903151530 55 24 0.0 0.0 0.00 0.02 0.02 91 1008.4
20260903151011 55 24 0.0 0.0 0.00 0.02 0.02 91 1008.4
20260903150517 54 296 0.0 0.0 0.00 0.02 0.02 91 1008.5
20260903150043 54 234 0.0 0.0 0.00 0.02 0.02 91 1008.4
20260903145509 54 137 0.0 0.0 0.00 0.02 0.02 91 1008.5
20260903145015 54 153 0.0 0.0 0.00 0.02 0.02 91 1008.5
20260903144537 54 153 0.0 0.0 0.00 0.02 0.02 92 1008.5
20260903144009 54 153 0.0 3.0 0.00 0.02 0.02 92 1008.5
20260903143521 54 153 0.0 3.0 0.00 0.02 0.02 92 1008.4
20260903143039 54 260 0.0 3.0 0.00 0.02 0.02 92 1008.4
20260903142513 54 319 0.0 3.0 0.00 0.02 0.02 92 1008.4
20260903142019 54 319 0.0 2.0 0.00 0.02 0.02 93 1008.3
20260903141535 54 319 0.0 1.0 0.00 0.02 0.02 93 1008.3
20260903141013 54 300 0.0 2.0 0.00 0.02 0.02 93 1008.2
20260903140519 54 300 0.0 2.0 0.00 0.02 0.02 93 1008.2
20260903140028 54 300 0.0 1.0 0.00 0.02 0.02 93 1008.2
20260903135510 54 300 0.0 2.0 0.00 0.02 0.02 93 1008.2
20260903135016 53 300 0.0 2.0 0.00 0.02 0.02 92 1008.1
20260903134543 54 300 0.0 3.0 0.00 0.02 0.02 93 1008.0
20260903134009 54 300 0.0 3.0 0.00 0.02 0.02 93 1008.0
20260903133518 54 340 0.0 1.0 0.00 0.02 0.02 93 1007.9
20260903133033 54 340 0.0 1.0 0.00 0.02 0.02 92 1007.9
20260903132509 54 340 0.0 1.0 0.01 0.02 0.02 93 1007.9
20260903132015 54 340 0.0 5.0 0.01 0.02 0.02 93 1007.8
20260903131530 54 340 0.0 5.0 0.01 0.02 0.02 93 1007.7
20260903131010 54 199 0.0 2.0 0.01 0.02 0.02 93 1007.7
20260903130515 54 199 0.0 2.0 0.01 0.02 0.02 92 1007.6
20260903130029 54 306 0.0 0.0 0.01 0.02 0.02 93 1007.5
20260903125510 54 306 0.0 0.0 0.01 0.02 0.02 92 1007.5
20260903125014 54 231 0.0 1.0 0.01 0.02 0.02 92 1007.5
20260903124530 54 188 0.0 2.0 0.01 0.02 0.02 92 1007.4
20260903124011 54 188 0.0 3.0 0.01 0.02 0.02 92 1007.4
20260903123520 54 132 0.0 3.0 0.01 0.02 0.02 92 1007.4
20260903123028 54 131 0.0 2.0 0.01 0.02 0.02 92 1007.3
20260903122510 54 263 0.0 2.0 0.00 0.01 0.01 91 1007.3
20260903122018 54 273 0.0 2.0 0.01 0.01 0.01 91 1007.3
20260903121503 54 63 0.0 0.0 0.01 0.01 0.01 91 1007.3
20260903121011 54 63 0.0 0.0 0.01 0.01 0.01 91 1007.2
20260903120506 54 63 0.0 0.0 0.01 0.01 0.01 91 1007.2
20260903120003 54 63 0.0 3.0 0.01 0.01 0.01 91 1007.2
20260903115508 54 63 0.0 3.0 0.01 0.01 0.01 91 1007.2
20260903115006 54 63 0.0 2.0 0.01 0.01 0.01 91 1007.1
20260903114503 54 63 0.0 3.0 0.01 0.01 0.01 91 1007.1
20260903114015 54 63 0.0 3.0 0.01 0.01 0.01 91 1007.1
20260903113503 55 56 0.0 2.0 0.01 0.01 0.01 90 1007.0
20260903113004 55 146 1.0 2.0 0.01 0.01 0.01 90 1007.0
20260903112514 55 146 0.0 2.0 0.01 0.01 0.01 89 1007.0
20260903112004 55 85 0.0 2.0 0.00 0.00 0.00 89 1006.9
20260903111503 55 180 0.0 3.0 0.00 0.00 0.00 88 1006.8
20260903111011 55 118 0.0 3.0 0.00 0.00 0.00 88 1006.7
20260903110509 55 185 1.0 3.0 0.00 0.00 0.00 87 1006.7
20260903110029 55 190 1.0 3.0 0.00 0.00 0.00 87 1006.7
20260903105509 55 254 1.0 3.0 0.00 0.00 0.00 87 1006.7
20260903105007 55 334 0.0 2.0 0.00 0.00 0.00 87 1006.6
20260903104530 55 334 0.0 2.0 0.00 0.00 0.00 87 1006.6
20260903104014 55 334 0.0 2.0 0.00 0.00 0.00 87 1006.6
20260903103503 55 334 0.0 1.0 0.00 0.00 0.00 87 1006.6
20260903103030 55 334 0.0 2.0 0.00 0.00 0.00 87 1006.7
20260903102512 55 334 0.0 2.0 0.00 0.00 0.00 87 1006.7
20260903102004 55 150 0.0 0.0 0.00 0.00 0.00 87 1006.7
20260903101532 55 150 0.0 0.0 0.00 0.00 0.00 87 1006.7
20260903101010 55 150 0.0 3.0 0.00 0.00 0.00 87 1006.7
20260903100504 55 154 0.0 3.0 0.00 0.00 0.00 86 1006.7
20260903100031 55 132 0.0 3.0 0.00 0.00 0.00 87 1006.6
20260903095513 55 140 0.0 4.0 0.00 0.00 0.00 87 1006.5
20260903095005 55 226 0.0 4.0 0.00 0.00 0.00 87 1006.6
20260903094530 55 229 0.0 2.0 0.00 0.00 0.00 88 1006.4
20260903094012 55 315 0.0 5.0 0.00 0.00 0.00 88 1006.5
20260903093504 55 315 0.0 5.0 0.00 0.00 0.00 88 1006.6
20260903093047 55 221 0.0 2.0 0.00 0.00 0.00 88 1006.6
20260903092515 55 221 0.0 3.0 0.00 0.00 0.00 88 1006.7
20260903092003 55 221 0.0 4.0 0.00 0.00 0.00 88 1006.6
20260903091531 55 219 0.0 4.0 0.00 0.00 0.00 88 1006.5
20260903091009 55 213 1.0 4.0 0.00 0.00 0.00 88 1006.4
20260903090506 54 300 1.0 3.0 0.00 0.00 0.00 88 1006.4
20260903090034 54 300 1.0 3.0 0.00 0.00 0.00 88 1006.4
20260903085512 54 261 0.0 3.0 0.00 0.00 0.00 88 1006.5
20260903085005 54 214 0.0 0.0 0.00 0.00 0.00 88 1006.6
20260903084532 55 214 0.0 0.0 0.00 0.00 0.00 88 1006.6
20260903084010 55 214 0.0 0.0 0.00 0.00 0.00 88 1006.6
20260903083506 55 214 0.0 0.0 0.00 0.00 0.00 88 1006.6
20260903083031 55 214 0.0 0.0 0.00 0.00 0.00 88 1006.6
20260903082512 55 214 0.0 1.0 0.00 0.00 0.00 88 1006.5
20260903082008 55 214 0.0 1.0 0.00 0.00 0.00 87 1006.5
20260903081540 55 214 0.0 1.0 0.00 0.00 0.00 87 1006.5
20260903081016 55 214 0.0 1.0 0.00 0.00 0.00 87 1006.5
20260903080504 55 214 0.0 2.0 0.00 0.00 0.00 88 1006.5
20260903080035 55 214 0.0 2.0 0.00 0.00 0.00 87 1006.4
20260903075515 55 214 0.0 2.0 0.00 0.00 0.00 88 1006.4
20260903075006 55 214 0.0 2.0 0.00 0.00 0.00 87 1006.4
20260903074528 55 214 0.0 2.0 0.00 0.00 0.00 87 1006.4
20260903074011 55 302 0.0 2.0 0.00 0.00 0.00 87 1006.2
20260903073507 55 302 0.0 2.0 0.00 0.00 0.00 87 1006.2
20260903073033 55 230 0.0 2.0 0.00 0.00 0.00 87 1006.2
20260903072511 55 230 0.0 2.0 0.00 0.00 0.00 87 1006.1
20260903072004 55 230 0.0 2.0 0.00 0.00 0.00 87 1006.1
20260903071528 55 230 0.0 2.0 0.00 0.00 0.00 87 1006.0
20260903071009 55 230 0.0 2.0 0.00 0.00 0.00 87 1006.1
20260903070507 55 230 0.0 2.0 0.00 0.00 0.00 87 1006.0
20260903070032 55 230 0.0 2.0 0.00 0.00 0.00 87 1006.1
20260903065512 55 230 0.0 3.0 0.00 0.00 0.00 87 1006.1
20260903065020 55 230 0.0 3.0 0.00 0.00 0.00 87 1006.1
20260903064529 55 230 0.0 2.0 0.00 0.00 0.00 88 1006.0
20260903064010 55 230 0.0 2.0 0.00 0.00 0.00 88 1006.0
20260903063519 55 213 0.0 0.0 0.00 0.00 0.00 88 1006.0
20260903063033 55 213 0.0 0.0 0.00 0.00 0.00 89 1006.0
20260903062514 55 213 0.0 0.0 0.00 0.00 0.00 89 1006.0
20260903062016 55 213 0.0 0.0 0.00 0.00 0.00 89 1006.0
20260903061533 55 213 0.0 0.0 0.00 0.00 0.00 88 1005.9
20260903061012 55 213 0.0 0.0 0.00 0.00 0.00 87 1005.9
20260903060518 55 213 0.0 0.0 0.00 0.00 0.00 88 1005.9
20260903060033 56 213 0.0 0.0 0.00 0.00 0.00 88 1005.8
20260903055511 56 213 0.0 0.0 0.00 0.00 0.00 88 1005.8
20260903055017 56 213 0.0 0.0 0.00 0.00 0.00 88 1005.7
20260903054532 56 193 0.0 0.0 0.00 0.00 0.00 88 1005.5
20260903054010 56 193 0.0 2.0 0.00 0.00 0.00 88 1005.6
20260903053517 56 204 0.0 3.0 0.00 0.00 0.00 88 1005.6
20260903053033 56 204 1.0 3.0 0.00 0.00 0.00 88 1005.6
20260903052511 56 202 0.0 2.0 0.00 0.00 0.00 89 1005.7
20260903052019 56 170 0.0 2.0 0.00 0.00 0.00 89 1005.7
20260903051532 55 229 0.0 0.0 0.00 0.00 0.00 89 1005.7
20260903051011 55 229 0.0 0.0 0.00 0.00 0.00 89 1005.8
20260903050519 55 229 0.0 0.0 0.00 0.00 0.00 89 1005.8
20260903050032 55 229 0.0 0.0 0.00 0.00 0.00 89 1005.8
20260903045513 55 229 0.0 0.0 0.00 0.00 0.00 88 1005.9
20260903045016 55 229 0.0 0.0 0.00 0.00 0.00 88 1005.8
20260903044530 55 211 0.0 0.0 0.00 0.00 0.00 88 1005.9
20260903044012 55 211 0.0 0.0 0.00 0.00 0.00 88 1005.7
20260903043518 55 211 0.0 0.0 0.00 0.00 0.00 87 1005.7
20260903043031 55 211 0.0 0.0 0.00 0.00 0.00 87 1005.7
20260903042515 55 211 0.0 0.0 0.00 0.00 0.00 87 1005.5
20260903042019 55 211 0.0 0.0 0.00 0.00 0.00 87 1005.4
20260903041533 55 211 0.0 0.0 0.00 0.00 0.00 86 1005.4
20260903041014 55 211 0.0 0.0 0.00 0.00 0.00 86 1005.4
20260903040517 55 211 0.0 0.0 0.00 0.00 0.00 86 1005.3
20260903040029 55 211 0.0 0.0 0.00 0.00 0.00 86 1005.3
20260903035512 55 211 0.0 0.0 0.00 0.00 0.00 86 1005.3
20260903035018 55 211 0.0 0.0 0.00 0.00 0.00 85 1005.2
20260903034531 56 211 0.0 0.0 0.00 0.00 0.00 86 1005.1
20260903034011 56 211 0.0 0.0 0.00 0.00 0.00 85 1004.9
20260903033518 56 211 0.0 0.0 0.00 0.00 0.00 85 1004.7
20260903033034 56 211 0.0 0.0 0.00 0.00 0.00 84 1004.7
20260903032511 56 211 0.0 0.0 0.00 0.00 0.00 84 1004.6
20260903032020 56 211 0.0 0.0 0.00 0.00 0.00 84 1004.6
20260903031516 57 211 0.0 0.0 0.00 0.00 0.00 84 1004.5
20260903031009 57 211 0.0 0.0 0.00 0.00 0.00 84 1004.3
20260903030507 57 211 0.0 0.0 0.00 0.00 0.00 83 1004.2
20260903030003 57 211 0.0 0.0 0.00 0.00 0.00 83 1004.1
20260903025516 57 211 0.0 2.0 0.00 0.00 0.00 83 1004.0
20260903025006 57 211 0.0 2.0 0.00 0.00 0.00 83 1003.9
20260903024505 58 211 0.0 0.0 0.00 0.00 0.00 83 1003.8
20260903024011 58 211 0.0 0.0 0.00 0.00 0.00 84 1003.7
20260903023503 58 211 0.0 0.0 0.00 0.00 0.00 83 1003.7
20260903023004 58 171 0.0 0.0 0.00 0.00 0.00 84 1003.5
20260903022511 58 171 0.0 0.0 0.00 0.00 0.00 83 1003.4
20260903022007 58 171 0.0 1.0 0.00 0.00 0.00 82 1003.2
20260903021513 58 171 0.0 3.0 0.00 0.00 0.00 83 1003.0
20260903021012 58 171 0.0 3.0 0.00 0.00 0.00 82 1003.1
20260903020510 58 258 0.0 2.0 0.00 0.00 0.00 82 1002.9
20260903020031 58 240 1.0 2.0 0.00 0.00 0.00 83 1002.8
20260903015512 58 184 1.0 2.0 0.00 0.00 0.00 84 1002.8
20260903015007 58 89 0.0 2.0 0.00 0.00 0.00 84 1002.8
20260903014534 58 123 0.0 2.0 0.00 0.00 0.00 85 1002.8
20260903014012 58 209 0.0 3.0 0.00 0.00 0.00 85 1002.8
20260903013507 58 243 0.0 4.0 0.00 0.00 0.00 85 1002.8
20260903013033 58 280 1.0 4.0 0.00 0.00 0.00 85 1002.6
20260903012509 58 216 1.0 4.0 0.00 0.00 0.00 85 1002.5
20260903012008 58 238 1.0 5.0 0.00 0.00 0.00 85 1002.4
20260903011531 58 252 0.0 5.0 0.00 0.00 0.00 86 1002.4
20260903011015 58 111 1.0 3.0 0.00 0.00 0.00 86 1002.3
20260903010504 58 90 1.0 4.0 0.00 0.00 0.00 87 1002.4
20260903010032 58 76 0.0 4.0 0.00 0.00 0.00 87 1002.5
20260903005510 58 80 1.0 4.0 0.00 0.00 0.00 87 1002.6
20260903005009 58 160 1.0 4.0 0.00 0.00 0.00 88 1002.5
20260903004533 57 11 1.0 3.0 0.00 0.00 0.00 88 1002.6
20260903004011 57 64 1.0 3.0 0.00 0.00 0.00 89 1002.6
20260903003508 57 83 0.0 4.0 0.00 0.00 0.00 89 1002.6
20260903003033 57 52 1.0 4.0 0.00 0.00 0.00 90 1002.6
20260903002511 57 249 0.0 2.0 0.00 0.00 0.00 90 1002.5
20260903002008 57 281 0.0 3.0 0.00 0.00 0.00 90 1002.6
20260903001534 57 74 0.0 3.0 0.00 0.00 0.00 90 1002.6
20260903001012 57 53 0.0 3.0 0.00 0.00 0.00 90 1002.6
20260903000519 57 217 1.0 3.0 0.00 0.00 0.00 90 1002.6
20260903000031 57 19 0.0 2.0 0.00 0.00 0.00 90 1002.7
20260902235513 57 19 1.0 2.0 0.00 0.00 0.00 91 1002.6
20260902235018 57 88 0.0 2.0 0.00 0.00 0.00 91 1002.6
20260902234529 57 110 0.0 4.0 0.00 0.00 0.00 91 1002.7
20260902234010 57 128 0.0 4.0 0.00 0.00 0.00 90 1002.8
20260902233516 57 87 1.0 4.0 0.00 0.00 0.00 90 1002.7
20260902233032 57 32 1.0 8.0 0.00 0.00 0.00 90 1002.7
20260902232514 57 67 1.0 8.0 0.00 0.00 0.00 90 1002.8
20260902232021 57 56 0.0 3.0 0.00 0.00 0.00 89 1002.8
20260902231544 57 91 0.0 3.0 0.00 0.00 0.00 89 1002.9
20260902231014 57 96 0.0 5.0 0.00 0.00 0.00 89 1002.9
20260902230519 57 162 0.0 7.0 0.00 0.00 0.00 89 1002.9
20260902230033 57 181 0.0 7.0 0.00 0.00 0.00 88 1002.9
20260902225512 58 329 1.0 4.0 0.00 0.00 0.00 87 1002.7
20260902225018 58 182 0.0 3.0 0.00 0.00 0.00 86 1002.6
20260902224529 58 230 0.0 4.0 0.00 0.00 0.00 85 1002.7
20260902224011 58 182 1.0 4.0 0.00 0.00 0.00 84 1002.6
20260902223517 59 171 0.0 5.0 0.00 0.00 0.00 84 1002.7
20260902223033 59 194 1.0 5.0 0.00 0.00 0.00 82 1002.7
20260902222511 60 249 1.0 5.0 0.00 0.00 0.00 81 1002.9
20260902222019 60 291 1.0 5.0 0.00 0.00 0.00 80 1003.0
20260902221531 60 225 1.0 5.0 0.00 0.00 0.00 78 1003.0
20260902221012 60 168 1.0 6.0 0.00 0.00 0.00 78 1003.0
20260902220516 61 229 1.0 6.0 0.00 0.00 0.00 78 1003.3
20260902220032 61 204 1.0 4.0 0.00 0.00 0.00 77 1003.1
20260902215515 61 180 0.0 6.0 0.00 0.00 0.00 77 1003.1
20260902215015 61 321 2.0 6.0 0.00 0.00 0.00 77 1003.2
20260902214533 62 219 2.0 6.0 0.00 0.00 0.00 76 1003.1
20260902214024 62 183 1.0 5.0 0.00 0.00 0.00 76 1003.2
20260902213523 63 173 1.0 9.0 0.00 0.00 0.00 75 1003.2
20260902213031 63 174 2.0 9.0 0.00 0.00 0.00 76 1003.1